When you browse on this site, cookies collect data to enhance your experience and personalize the content and advertising you see.
Visit our Privacy Policy to learn more. By continuing to use the site, you agree to this use of cookies and data.
  • In France
  • List of Countries
  • For 7 days
  • Water Temperature
  • Weather Map
  • Weather Widgets
  • user-avatar
    Login

    Hourly Weather Leighton Buzzard

    Today, 31 May, Sunday

    Time Temperature Precipitation Wind Pressure Humidity
    00:00 +8°C° 0 mm 4 mps 758 mmHg 90%
    01:00 +8°C° 0 mm 4 mps 758 mmHg 90%
    02:00 +8°C° 0 mm 3 mps 758 mmHg 90%
    03:00 +8°C° 0 mm 3 mps 758 mmHg 91%
    04:00 +8°C° 0 mm 4 mps 758 mmHg 89%
    05:00 +10°C° 0 mm 4 mps 758 mmHg 87%
    06:00 +11°C° 0 mm 4 mps 759 mmHg 83%
    07:00 +13°C° 0 mm 4 mps 759 mmHg 79%
    08:00 +15°C° 0 mm 4 mps 759 mmHg 74%
    09:00 +19°C° 0 mm 5 mps 759 mmHg 69%
    10:00 +19°C° 0 mm 5 mps 759 mmHg 64%
    11:00 +20°C° 0 mm 6 mps 759 mmHg 60%
    12:00 +21°C° 0 mm 6 mps 759 mmHg 55%
    13:00 +21°C° 0 mm 6 mps 759 mmHg 55%
    14:00 +21°C° 0 mm 6 mps 759 mmHg 56%
    15:00 +20°C° 0 mm 6 mps 759 mmHg 56%
    16:00 +19°C° 0 mm 5 mps 759 mmHg 60%
    17:00 +19°C° 0 mm 5 mps 759 mmHg 65%
    18:00 +18°C° 0 mm 4 mps 759 mmHg 69%
    19:00 +15°C° 0 mm 4 mps 759 mmHg 74%
    20:00 +13°C° 0 mm 4 mps 759 mmHg 79%
    21:00 +11°C° 0 mm 4 mps 759 mmHg 83%
    22:00 +10°C° 0 mm 4 mps 759 mmHg 87%
    23:00 +8°C° 0 mm 4 mps 760 mmHg 90%

    Tomorrow, 1 June, Monday

    Time Temperature Precipitation Wind Pressure Humidity
    00:00 +8°C° 0 mm 3 mps 760 mmHg 93%
    01:00 +8°C° 0 mm 3 mps 759 mmHg 94%
    02:00 +8°C° 0 mm 3 mps 759 mmHg 95%
    03:00 +8°C° 0 mm 3 mps 759 mmHg 97%
    04:00 +9°C° 0 mm 3 mps 759 mmHg 95%
    05:00 +10°C° 0 mm 4 mps 759 mmHg 93%
    06:00 +11°C° 0 mm 4 mps 759 mmHg 91%
    07:00 +13°C° 0 mm 4 mps 759 mmHg 85%
    08:00 +15°C° 0 mm 5 mps 759 mmHg 79%
    09:00 +17°C° 0 mm 5 mps 759 mmHg 73%
    10:00 +19°C° 0 mm 5 mps 759 mmHg 70%
    11:00 +20°C° 0 mm 5 mps 759 mmHg 68%
    12:00 +21°C° 0 mm 5 mps 759 mmHg 65%
    13:00 +21°C° 0 mm 5 mps 759 mmHg 65%
    14:00 +21°C° 0 mm 5 mps 759 mmHg 65%
    15:00 +21°C° 0 mm 5 mps 759 mmHg 65%
    16:00 +21°C° 0.1 mm 4 mps 759 mmHg 70%
    17:00 +20°C° 0.1 mm 4 mps 758 mmHg 74%
    18:00 +19°C° 0.1 mm 4 mps 758 mmHg 78%
    19:00 +17°C° 0 mm 4 mps 759 mmHg 82%
    20:00 +14°C° 0 mm 4 mps 759 mmHg 85%
    21:00 +12°C° 0 mm 4 mps 759 mmHg 89%
    22:00 +10°C° 0 mm 3 mps 759 mmHg 92%
    23:00 +9°C° 0 mm 3 mps 759 mmHg 94%

    Day after tomorrow, 2 June, Tuesday

    Time Temperature Precipitation Wind Pressure Humidity
    00:00 +8°C° 0 mm 3 mps 759 mmHg 96%
    01:00 +8°C° 0 mm 3 mps 758 mmHg 96%
    02:00 +7°C° 0 mm 3 mps 758 mmHg 97%
    03:00 +7°C° 0 mm 3 mps 758 mmHg 97%
    04:00 +8°C° 0 mm 3 mps 758 mmHg 97%
    05:00 +9°C° 0 mm 3 mps 758 mmHg 96%
    06:00 +10°C° 0 mm 3 mps 758 mmHg 95%
    07:00 +12°C° 0 mm 3 mps 758 mmHg 90%
    08:00 +14°C° 0 mm 3 mps 757 mmHg 86%
    09:00 +17°C° 0 mm 3 mps 757 mmHg 81%
    10:00 +18°C° 0 mm 3 mps 757 mmHg 77%
    11:00 +19°C° 0 mm 3 mps 757 mmHg 73%
    12:00 +20°C° 0 mm 3 mps 756 mmHg 69%
    13:00 +20°C° 0 mm 3 mps 756 mmHg 67%
    14:00 +21°C° 0 mm 2 mps 755 mmHg 66%
    15:00 +21°C° 0 mm 2 mps 755 mmHg 64%
    16:00 +21°C° 0 mm 2 mps 754 mmHg 69%
    17:00 +20°C° 0 mm 3 mps 754 mmHg 74%
    18:00 +19°C° 0 mm 3 mps 753 mmHg 78%
    19:00 +17°C° 0 mm 3 mps 753 mmHg 83%
    20:00 +16°C° 0 mm 3 mps 753 mmHg 88%
    21:00 +14°C° 0 mm 2 mps 753 mmHg 93%
    22:00 +13°C° 0 mm 2 mps 752 mmHg 94%
    23:00 +12°C° 0 mm 2 mps 752 mmHg 94%

    3 June, Wednesday

    Time Temperature Precipitation Wind Pressure Humidity
    00:00 +12°C° 0 mm 2 mps 752 mmHg 94%
    01:00 +10°C° 0 mm 2 mps 751 mmHg 94%
    02:00 +10°C° 0 mm 2 mps 751 mmHg 94%
    03:00 +9°C° 0 mm 2 mps 750 mmHg 94%
    04:00 +10°C° 0 mm 2 mps 750 mmHg 93%
    05:00 +10°C° 0 mm 2 mps 750 mmHg 91%
    06:00 +12°C° 0 mm 2 mps 750 mmHg 90%
    07:00 +12°C° 0 mm 3 mps 750 mmHg 86%
    08:00 +13°C° 0 mm 4 mps 750 mmHg 83%
    09:00 +15°C° 0 mm 4 mps 750 mmHg 79%
    10:00 +17°C° 0.1 mm 4 mps 749 mmHg 75%
    11:00 +17°C° 0.1 mm 5 mps 749 mmHg 72%
    12:00 +19°C° 0.1 mm 5 mps 749 mmHg 68%
    13:00 +17°C° 0.2 mm 5 mps 749 mmHg 71%
    14:00 +17°C° 0.2 mm 6 mps 748 mmHg 74%
    15:00 +17°C° 0.2 mm 7 mps 748 mmHg 77%
    16:00 +16°C° 0.1 mm 7 mps 748 mmHg 77%
    17:00 +15°C° 0.1 mm 7 mps 748 mmHg 77%
    18:00 +14°C° 0.1 mm 7 mps 748 mmHg 77%
    19:00 +13°C° 0 mm 6 mps 748 mmHg 80%
    20:00 +11°C° 0 mm 6 mps 748 mmHg 84%
    21:00 +9°C° 0 mm 5 mps 749 mmHg 88%
    22:00 +9°C° 0 mm 5 mps 749 mmHg 91%
    23:00 +9°C° 0 mm 5 mps 749 mmHg 94%

    4 June, Thursday

    Time Temperature Precipitation Wind Pressure Humidity
    00:00 +8°C° 0 mm 5 mps 749 mmHg 96%
    01:00 +8°C° 0 mm 4 mps 749 mmHg 96%
    02:00 +7°C° 0 mm 4 mps 748 mmHg 95%
    03:00 +7°C° 0 mm 4 mps 748 mmHg 94%
    04:00 +8°C° 0 mm 4 mps 748 mmHg 92%
    05:00 +8°C° 0 mm 4 mps 748 mmHg 90%
    06:00 +10°C° 0 mm 4 mps 748 mmHg 89%
    07:00 +11°C° 0 mm 4 mps 748 mmHg 83%
    08:00 +12°C° 0 mm 4 mps 749 mmHg 78%
    09:00 +13°C° 0 mm 4 mps 749 mmHg 72%
    10:00 +14°C° 0.1 mm 3 mps 749 mmHg 69%
    11:00 +14°C° 0.1 mm 3 mps 749 mmHg 66%
    12:00 +16°C° 0.1 mm 3 mps 749 mmHg 64%
    13:00 +16°C° 0 mm 3 mps 749 mmHg 64%
    14:00 +16°C° 0 mm 3 mps 748 mmHg 64%
    15:00 +17°C° 0 mm 2 mps 748 mmHg 64%
    16:00 +16°C° 0 mm 2 mps 748 mmHg 67%
    17:00 +16°C° 0 mm 2 mps 748 mmHg 69%
    18:00 +16°C° 0 mm 2 mps 748 mmHg 72%
    19:00 +15°C° 0 mm 1 mps 748 mmHg 76%
    20:00 +13°C° 0 mm 1 mps 748 mmHg 80%
    21:00 +12°C° 0 mm 1 mps 748 mmHg 84%
    22:00 +11°C° 0 mm 1 mps 748 mmHg 85%
    23:00 +11°C° 0 mm 1 mps 748 mmHg 86%

    5 June, Friday

    Time Temperature Precipitation Wind Pressure Humidity
    00:00 +10°C° 0 mm 1 mps 748 mmHg 88%
    01:00 +10°C° 0 mm 1 mps 747 mmHg 88%
    02:00 +9°C° 0 mm 1 mps 747 mmHg 89%
    03:00 +9°C° 0 mm 1 mps 747 mmHg 90%
    04:00 +9°C° 0 mm 2 mps 747 mmHg 88%
    05:00 +10°C° 0 mm 2 mps 747 mmHg 86%
    06:00 +10°C° 0 mm 2 mps 747 mmHg 84%
    07:00 +12°C° 0 mm 3 mps 746 mmHg 79%
    08:00 +13°C° 0 mm 4 mps 746 mmHg 73%
    09:00 +15°C° 0 mm 4 mps 746 mmHg 67%
    10:00 +17°C° 0 mm 4 mps 746 mmHg 66%
    11:00 +18°C° 0 mm 4 mps 746 mmHg 66%
    12:00 +19°C° 0 mm 4 mps 746 mmHg 65%
    13:00 +19°C° 0.1 mm 4 mps 745 mmHg 68%
    14:00 +19°C° 0.1 mm 4 mps 745 mmHg 70%
    15:00 +18°C° 0.1 mm 4 mps 745 mmHg 73%
    16:00 +17°C° 0.1 mm 4 mps 745 mmHg 77%
    17:00 +15°C° 0.1 mm 4 mps 745 mmHg 81%
    18:00 +14°C° 0.1 mm 3 mps 745 mmHg 85%
    19:00 +13°C° 0 mm 3 mps 745 mmHg 84%
    20:00 +12°C° 0 mm 3 mps 746 mmHg 82%
    21:00 +11°C° 0 mm 3 mps 746 mmHg 80%
    22:00 +9°C° 0 mm 3 mps 746 mmHg 82%
    23:00 +8°C° 0 mm 3 mps 746 mmHg 84%
    Show more